Location: Unspecified
(0.0000°N, 0.0000°E)
Time: 17:57:21
(UTC+00:00)

Vanguard 2 - All Passes

Search period start: 18 January 2020 00:00
Search period end: 28 January 2020 00:00
Orbit: 553 x 2938 km, 32.9° (Epoch: 18 January)

Date Brightness Start Highest point End Pass type
(mag) Time Alt. Az. Time Alt. Az. Time Alt. Az.
18 Jan - 00:23:42 10° WSW 00:30:43 24° SSW 00:40:38 10° SSE visible
18 Jan - 02:39:22 10° SSW 02:46:10 15° S 02:54:00 10° SSE visible
18 Jan - 04:53:27 10° SSW 05:04:18 19° SSE 05:15:14 10° SE visible
18 Jan - 07:04:45 10° SW 07:20:41 38° SSE 07:33:21 10° E daylight
18 Jan - 09:17:11 10° SW 09:33:58 86° SE 09:44:33 10° ENE daylight
18 Jan - 11:33:29 10° W 11:44:13 30° NW 11:51:23 10° NNE daylight
18 Jan - 20:24:03 10° NNW 20:28:24 35° NE 20:34:43 10° ESE visible
18 Jan - 22:31:24 10° W 22:37:21 44° SSW 22:47:03 10° SE visible
19 Jan - 00:43:25 10° SW 00:49:47 18° SSW 00:58:05 10° SSE visible
19 Jan - 02:59:24 10° SSW 03:06:01 14° S 03:13:27 10° SSE visible
19 Jan - 05:11:29 10° SSW 05:23:53 23° SSE 05:36:03 10° ESE visible
19 Jan - 07:22:30 10° SW 07:39:27 48° SSE 07:52:23 10° E daylight
19 Jan - 09:35:35 10° WSW 09:52:02 74° NW 10:02:24 10° NE daylight
19 Jan - 11:53:43 10° W 12:02:08 21° NW 12:08:15 10° N daylight
19 Jan - 20:41:28 10° NW 20:46:08 61° NE 20:53:24 10° ESE visible
19 Jan - 22:50:02 10° W 22:55:49 30° SSW 23:04:39 10° SSE visible
20 Jan - 01:03:42 10° SW 01:09:03 14° S 01:15:34 10° SSE visible
20 Jan - 03:18:36 10° SSW 03:25:54 14° S 03:34:00 10° SE visible
20 Jan - 05:29:17 10° SSW 05:43:12 28° SSE 05:56:27 10° ESE visible
20 Jan - 07:40:21 10° SW 07:57:59 61° SSE 08:11:01 10° ENE daylight
20 Jan - 09:54:20 10° WSW 10:09:58 56° NW 10:20:02 10° NE daylight
20 Jan - 12:15:02 10° WNW 12:20:13 14° NW 12:24:29 10° N daylight
20 Jan - 18:54:58 10° NNE 18:56:01 11° NE 18:57:08 10° NE visible
20 Jan - 20:59:14 10° WNW 21:04:01 79° SW 21:11:39 10° SE visible
20 Jan - 23:09:09 10° WSW 23:14:30 22° SSW 23:22:00 10° SSE visible
21 Jan - 01:24:26 10° SSW 01:28:32 12° S 01:33:12 10° SSE visible
21 Jan - 03:37:02 10° SSW 03:45:43 16° SSE 03:55:15 10° SE visible
21 Jan - 05:46:57 10° SSW 06:02:14 35° SSE 06:16:20 10° E visible
21 Jan - 07:58:20 10° SW 08:16:21 77° SE 08:29:19 10° ENE daylight
21 Jan - 10:13:30 10° WSW 10:27:54 42° NW 10:37:28 10° NNE daylight
21 Jan - 19:10:42 10° NNW 19:13:51 21° NE 19:17:39 10° E visible
21 Jan - 21:17:21 10° WNW 21:22:06 47° SSW 21:29:31 10° SE visible
21 Jan - 23:28:53 10° SW 23:33:22 16° SSW 23:39:04 10° SSE visible
22 Jan - 01:45:04 10° S 01:48:11 11° S 01:51:33 10° SSE visible
22 Jan - 03:54:56 10° SSW 04:05:18 20° SSE 04:16:36 10° ESE visible
22 Jan - 06:04:38 10° SW 06:21:01 44° SSE 06:35:44 10° E daylight
22 Jan - 08:16:31 10° SW 08:34:33 86° NW 08:47:22 10° NE daylight
22 Jan - 10:33:12 10° W 10:45:53 31° NW 10:54:42 10° NNE daylight
22 Jan - 19:27:46 10° NNW 19:31:37 39° NE 19:36:38 10° ESE visible
22 Jan - 21:35:52 10° W 21:40:25 29° SSW 21:47:04 10° SSE night (unlit)
22 Jan - 23:49:40 10° SSW 23:52:24 11° S 23:55:32 10° S visible
23 Jan - 02:04:23 10° S 02:07:54 11° S 02:11:44 10° SSE visible
23 Jan - 04:12:36 10° SSW 04:24:37 24° SSE 04:37:35 10° ESE visible
23 Jan - 06:22:20 10° SW 06:39:37 55° SSE 06:54:41 10° ENE daylight
23 Jan - 08:35:00 10° WSW 08:52:39 69° NW 09:05:11 10° NE daylight
23 Jan - 10:53:35 10° W 11:03:59 23° NW 11:11:41 10° NNE daylight
23 Jan - 19:45:21 10° NW 19:49:25 78° NE 19:55:01 10° ESE visible
23 Jan - 21:54:55 10° WSW 21:58:54 19° SSW 22:04:14 10° SSE night (unlit)
24 Jan - 02:22:20 10° S 02:27:35 13° SSE 02:33:28 10° SE visible
24 Jan - 04:30:09 10° SSW 04:43:38 30° SSE 04:58:02 10° E visible
24 Jan - 06:40:10 10° SW 06:58:01 68° SE 07:13:15 10° ENE daylight
24 Jan - 08:53:50 10° WSW 09:10:42 54° NW 09:22:48 10° NE daylight
24 Jan - 11:14:51 10° WNW 11:22:20 16° NW 11:28:19 10° N daylight
24 Jan - 17:57:26 10° N 17:59:16 13° NNE 18:01:07 10° ENE daylight
24 Jan - 20:03:18 10° WNW 20:07:22 54° SSW 20:12:58 10° SE visible
24 Jan - 22:14:53 10° SW 22:17:35 13° SSW 22:20:44 10° S night (unlit)
25 Jan - 02:39:48 10° S 02:47:05 15° SSE 02:55:30 10° SE visible
25 Jan - 04:47:41 10° SSW 05:02:24 38° SSE 05:17:54 10° E visible
25 Jan - 06:58:10 10° SW 07:16:18 84° SE 07:31:30 10° ENE daylight
25 Jan - 09:13:06 10° WSW 09:28:47 41° NW 09:40:15 10° NNE daylight
25 Jan - 11:37:47 10° NW 11:40:57 11° NNW 11:43:49 10° NNW daylight
25 Jan - 18:13:54 10° NNW 18:17:12 25° NE 18:20:43 10° E daylight
25 Jan - 20:21:42 10° W 20:25:29 30° SSW 20:30:31 10° SSE visible
26 Jan - 02:57:08 10° SSW 03:06:22 19° SSE 03:17:13 10° ESE visible
26 Jan - 05:05:16 10° SW 05:20:57 48° SE 05:37:16 10° ENE visible
26 Jan - 07:16:24 10° WSW 07:34:30 80° NW 07:49:31 10° NE daylight
26 Jan - 09:32:55 10° W 09:46:59 32° NW 09:57:33 10° NNE daylight
26 Jan - 18:31:14 10° NW 18:35:04 51° NE 18:39:19 10° ESE visible
26 Jan - 20:40:43 10° WSW 20:43:47 17° SSW 20:47:34 10° SSE visible
27 Jan - 03:14:26 10° SSW 03:25:21 25° SSE 03:38:20 10° ESE visible
27 Jan - 05:22:56 10° SW 05:39:21 60° SE 05:56:09 10° ENE visible
27 Jan - 07:34:54 10° WSW 07:52:41 64° NW 08:07:19 10° NE daylight
27 Jan - 09:53:24 10° W 10:05:22 24° NNW 10:14:42 10° NNE daylight
27 Jan - 18:49:02 10° WNW 18:52:57 74° SW 18:57:24 10° SE visible
27 Jan - 21:01:26 10° SSW 21:02:15 10° SSW 21:03:06 10° S visible
